Weather History for Kremmling, CO

Change the Weather History Date:

Thursday, January 24, 2013

  Actual Average (KEGE) Record (KEGE)
Temperature  
Mean Temperature 16 °F -  
Max Temperature 41 °F 33 °F 52 °F (1954)
Min Temperature -9 °F 3 °F -22 °F (1962)
Degree Days  
Heating Degree Days 49    
Moisture  
Dew Point 7 °F    
Average Humidity 75    
Maximum Humidity 93    
Minimum Humidity 49    
Precipitation  
Precipitation 0.00 in - - ()
Sea Level Pressure  
Sea Level Pressure 30.30 in    
Wind  
Wind Speed 1 mph (WNW)    
Max Wind Speed 14 mph    
Max Gust Speed 22 mph    
Averages and records for this station are not official NWS values.
T = Trace of Precipitation, MM = Missing Value Source: NWS Daily Summary

Daily Weather History Graph

Daily Weather History Graph

Search for Another Location

Airport:

Trip Planner

Search our weather history database for the weather conditions in past years. The results will help you decide how hot, cold, wet, or windy it might be!

Date:

Astronomy

Jan. 24, 2013 Rise Set
Actual Time 7:20 AM MST 5:15 PM MST
Civil Twilight 6:51 AM MST 5:44 PM MST
Nautical Twilight 6:18 AM MST 6:17 PM MST
Astronomical Twilight 5:46 AM MST 6:49 PM MST
Moon 3:19 PM MST 5:20 AM MST
Length of Visible Light 10h 53m
Length of Day
9h 54m
Waxing Gibbous, 95% of the Moon is Illuminated
Jan 24
Waxing Gibbous
Jan 26
Full
Feb 3
Last Quarter
Feb 10
New
Feb 17
First Quarter

Hourly Weather History & Observations

Time (MST) Temp. Windchill Dew Point Humidity Pressure Visibility Wind Dir Wind Speed Gust Speed Precip Events Conditions
12:15 AM -4.0 °F - -7.6 °F 85% 30.37 in - Calm Calm - N/A   Clear
12:36 AM -4.0 °F - -7.6 °F 85% 30.37 in - Calm Calm - N/A   Clear
12:56 AM -4.0 °F - -9.4 °F 78% 30.35 in - Calm Calm - N/A   Clear
1:16 AM -5.8 °F - -9.4 °F 84% 30.35 in - Calm Calm - N/A   Unknown
1:36 AM -5.8 °F - -9.4 °F 84% 30.35 in - Calm Calm - N/A   Clear
1:56 AM -7.6 °F - -13.0 °F 77% 30.36 in - Calm Calm - N/A   Clear
2:16 AM -7.6 °F - -13.0 °F 77% 30.36 in - Calm Calm - N/A   Clear
2:36 AM -7.6 °F - -13.0 °F 77% 30.35 in - Calm Calm - N/A   Clear
2:56 AM -7.6 °F - -13.0 °F 77% 30.35 in - Calm Calm - N/A   Clear
3:16 AM -7.6 °F - -13.0 °F 77% 30.35 in - Calm Calm - N/A   Clear
3:36 AM -7.6 °F - -13.0 °F 77% 30.35 in - Calm Calm - N/A Snow Light Snow
3:56 AM -7.6 °F - -13.0 °F 77% 30.34 in - Calm Calm - N/A   Clear
4:16 AM -9.4 °F - -14.8 °F 77% 30.33 in - Calm Calm - N/A   Clear
4:36 AM -9.4 °F - -14.8 °F 77% 30.33 in - Calm Calm - N/A   Scattered Clouds
4:56 AM -9.4 °F - -16.6 °F 71% 30.33 in - Calm Calm - N/A   Scattered Clouds
5:16 AM -9.4 °F - -14.8 °F 77% 30.34 in - Calm Calm - N/A   Clear
5:36 AM -9.4 °F - -14.8 °F 77% 30.34 in - Calm Calm - N/A   Clear
5:56 AM -7.6 °F - -13.0 °F 77% 30.33 in - Calm Calm - N/A Snow Light Snow
6:16 AM -7.6 °F - -13.0 °F 77% 30.34 in - Calm Calm - N/A   Clear
6:36 AM -7.6 °F - -13.0 °F 77% 30.34 in - Calm Calm - N/A   Clear
6:55 AM -7.6 °F - -13.0 °F 77% 30.34 in - Calm Calm - N/A   Scattered Clouds
7:16 AM -5.8 °F - -11.2 °F 77% 30.34 in - Calm Calm - N/A   Mostly Cloudy
7:36 AM -5.8 °F - -11.2 °F 77% 30.34 in - Calm Calm - N/A   Scattered Clouds
7:56 AM -5.8 °F - -11.2 °F 77% 30.34 in - Calm Calm - N/A   Clear
8:16 AM -4.0 °F - -9.4 °F 78% 30.34 in - Calm Calm - N/A   Clear
8:36 AM -4.0 °F - -7.6 °F 85% 30.33 in - Calm Calm - N/A   Scattered Clouds
8:56 AM -2.2 °F - -7.6 °F 78% 30.34 in - Calm Calm - N/A   Scattered Clouds
9:15 AM -0.4 °F - -5.8 °F 78% 30.34 in - Calm Calm - N/A   Clear
9:35 AM 1.4 °F - -5.8 °F 72% 30.34 in - Calm Calm - N/A   Clear
9:56 AM 1.4 °F - -5.8 °F 72% 30.33 in - Calm Calm - N/A   Clear
10:15 AM 5.0 °F - -4.0 °F 66% 30.33 in - Calm Calm - N/A   Clear
10:35 AM 5.0 °F - -4.0 °F 66% 30.32 in - Calm Calm - N/A   Clear
10:56 AM 8.6 °F - -2.2 °F 62% 30.32 in - Calm Calm - N/A   Clear
11:16 AM 10.4 °F - -0.4 °F 62% 30.31 in - Calm Calm - N/A   Clear
11:36 AM 10.4 °F - -0.4 °F 62% 30.29 in - Calm Calm - N/A   Mostly Cloudy
11:56 AM 12.2 °F - 1.4 °F 62% 30.26 in - Calm Calm - N/A   Mostly Cloudy
12:16 PM 14.0 °F - 3.2 °F 62% 30.25 in - Calm Calm - N/A   Mostly Cloudy
12:35 PM 12.2 °F 6.1 °F 3.2 °F 67% 30.25 in - West 3.5 mph - N/A   Mostly Cloudy
12:56 PM 14.0 °F - 5.0 °F 67% 30.24 in - Calm Calm - N/A   Overcast
1:16 PM 17.6 °F 12.3 °F 5.0 °F 58% 30.23 in - NE 3.5 mph - N/A   Overcast
1:36 PM 19.4 °F - 8.6 °F 63% 30.23 in - Calm Calm - N/A   Mostly Cloudy
1:56 PM 21.2 °F 16.4 °F 10.4 °F 63% 30.22 in - NNE 3.5 mph - N/A   Mostly Cloudy
2:15 PM 26.6 °F 22.6 °F 14.0 °F 59% 30.22 in - ESE 3.5 mph - N/A   Overcast
2:36 PM 35.6 °F 32.8 °F 21.2 °F 56% 30.20 in - ESE 3.5 mph - N/A   Mostly Cloudy
2:55 PM 41.0 °F 34.7 °F 23.0 °F 49% 30.21 in - SSW 10.4 mph 21.9 mph N/A   Overcast
3:16 PM 41.0 °F 38.0 °F 23.0 °F 49% 30.21 in - NNE 4.6 mph - N/A   Mostly Cloudy
3:36 PM 41.0 °F 37.1 °F 23.0 °F 49% 30.22 in - West 5.8 mph - N/A   Overcast
3:55 PM 41.0 °F 37.1 °F 26.6 °F 57% 30.22 in - SW 5.8 mph - N/A   Overcast
4:16 PM 41.0 °F 37.1 °F 26.6 °F 57% 30.22 in - SSW 5.8 mph - N/A   Overcast
4:36 PM 39.2 °F 33.0 °F 26.6 °F 61% 30.22 in - West 9.2 mph - N/A   Overcast
4:56 PM 39.2 °F 35.9 °F 26.6 °F 61% 30.23 in - NW 4.6 mph - N/A   Overcast
5:15 PM 37.4 °F 31.4 °F 28.4 °F 70% 30.24 in - West 8.1 mph - N/A   Light Drizzle
5:36 PM 37.4 °F 30.3 °F 30.2 °F 75% 30.24 in - West 10.4 mph - N/A   Overcast
5:56 PM 35.6 °F 28.0 °F 28.4 °F 75% 30.25 in - West 10.4 mph - N/A   Overcast
6:16 PM 35.6 °F 27.1 °F 30.2 °F 81% 30.26 in - West 12.7 mph 18.4 mph N/A   Overcast
6:36 PM 35.6 °F 26.6 °F 30.2 °F 81% 30.27 in - West 13.8 mph - N/A   Unknown
6:56 PM 35.6 °F 30.7 °F 30.2 °F 81% 30.27 in - North 5.8 mph - N/A   Unknown
7:16 PM 32.0 °F 27.5 °F 28.4 °F 87% 30.27 in - North 4.6 mph - N/A   Unknown
7:35 PM 32.0 °F 28.7 °F 30.2 °F 93% 30.28 in - North 3.5 mph - N/A   Unknown
7:55 PM 32.0 °F 28.7 °F 30.2 °F 93% 30.28 in - North 3.5 mph - N/A   Unknown
8:16 PM 32.0 °F 28.7 °F 28.4 °F 87% 30.28 in - West 3.5 mph - N/A   Mostly Cloudy
8:35 PM 33.8 °F - 30.2 °F 87% 30.29 in - Calm Calm - N/A   Mostly Cloudy
8:56 PM 32.0 °F 27.5 °F 28.4 °F 87% 30.30 in - West 4.6 mph - N/A   Overcast
9:16 PM 35.6 °F 30.7 °F 30.2 °F 81% 30.30 in - West 5.8 mph - N/A   Overcast
9:36 PM 33.8 °F - 30.2 °F 87% 30.31 in - Calm Calm - N/A   Overcast
9:56 PM 33.8 °F - 30.2 °F 87% 30.32 in - Calm Calm - N/A   Overcast
10:16 PM 32.0 °F 28.7 °F 30.2 °F 93% 30.31 in - North 3.5 mph - N/A   Unknown
10:36 PM 32.0 °F 27.5 °F 30.2 °F 93% 30.30 in - SSE 4.6 mph - N/A   Unknown
10:56 PM 32.0 °F - 30.2 °F 93% 30.29 in - Calm Calm - N/A   Overcast
11:15 PM 32.0 °F 28.7 °F 30.2 °F 93% 30.30 in - ENE 3.5 mph - N/A   Overcast
11:36 PM 32.0 °F - 30.2 °F 93% 30.31 in - Calm Calm - N/A   Unknown
11:56 PM 32.0 °F - 28.4 °F 87% 30.31 in - Calm Calm - N/A   Unknown